Location: East Arcadia
(34.1056°N, 118.0176°W)
Time: 11:54:33
(UTC+00:00)

Daily predictions for brighter satellites

Satellite Brightness Start Highest point End
(mag) Time Altitude Azimuth Time Altitude Azimuth Time Altitude Azimuth
Cosmos 1484 Rocket 2.6 12:00:30 10° N 12:04:19 85° WNW 12:05:32 42° SSW
IRS-P3 4.1 12:03:53 10° NNE 12:09:14 84° ESE 12:14:34 10° SSW
Cosmos 962 Rocket 4.5 12:06:18 23° SSW 12:10:10 58° W 12:16:15 10° N
Nadezhda 3 Rocket 4.3 12:05:58 10° NNW 12:11:51 42° W 12:17:30 11° SSW
CZ-2C R/B 3.2 12:11:08 29° SW 12:13:01 36° W 12:18:06 10° NNW
Cosmos 1666 Rocket 3.7 12:09:22 10° N 12:13:41 75° E 12:18:02 10° S
Cosmos 1980 Rocket 3.1 12:09:29 10° S 12:14:57 50° ESE 12:20:25 10° NNE
Cosmos 1536 2.6 12:16:21 10° N 12:20:20 75° W 12:24:19 10° S
Cosmos 2218 Rocket 4.0 12:14:23 10° S 12:20:42 83° W 12:27:08 10° N
Cosmos 1633 Rocket 3.1 12:19:14 10° N 12:23:39 79° E 12:28:00 10° S
ERS-1 4.3 12:20:11 10° N 12:25:07 71° WNW 12:30:02 10° SSW
Cosmos 2297 Rocket 2.1 12:20:17 10° NNW 12:25:58 79° WSW 12:31:36 10° SSE
Cosmos 1743 3.1 12:24:14 10° NNW 12:27:42 38° W 12:30:01 18° SSW
Aurora 2 Rocket 4.1 12:26:10 21° SW 12:28:39 29° SSW 12:32:45 10° SE
SAR-Lupe-2 4.2 12:28:06 10° N 12:31:23 35° WNW 12:32:35 27° WSW
NOAA 11 4.1 12:26:12 10° N 12:31:36 67° WNW 12:37:00 10° SSW
Cosmos 2341 Rocket 4.4 12:32:08 10° SSW 12:38:06 41° W 12:44:06 10° N
ATLAS 2AS CENTAUR R/B 4.3 12:32:04 10° NNW 12:38:19 36° NE 12:44:16 10° ESE
DELTA 2 R/B (1) 3.8 12:33:21 13° WNW 12:38:26 73° NNE 12:44:03 10° ESE
GEOS 3 Rocket 4.1 12:34:37 10° SE 12:39:43 64° NE 12:44:56 10° NNW
Meteor 1-27 Rocket 4.2 12:35:01 10° SSW 12:40:28 41° WNW 12:45:50 10° N
USA 290 2.4 12:39:39 18° SW 12:41:46 50° WNW 12:44:54 10° N
Cosmos 2366 rocket 4.1 12:36:19 10° SSW 12:42:20 53° W 12:48:28 10° N
Cosmos 2227 Rocket 2.3 12:37:33 10° NNW 12:43:13 85° ENE 12:48:51 10° SSE
Cosmos 2219 3.7 12:42:37 10° NNW 12:48:16 67° ENE 12:53:56 10° SSE
Cosmos 1727 Rocket 4.3 12:43:56 10° N 12:50:06 72° E 12:56:15 10° SSE
Cosmos 2369 3.7 12:47:04 10° SSW 12:52:45 78° WNW 12:58:30 10° NNE
ARIANE 5 R/B 3.3 12:49:33 10° N 12:54:10 33° WNW 12:58:48 10° SW
Cosmos 405 Rocket 4.5 12:56:46 12° W 12:57:26 13° WNW 12:59:07 10° NW
H-2A R/B 3.4 12:54:45 10° NNW 12:57:53 30° WNW 13:01:01 10° SW
ASTRO E2 4.2 12:57:04 10° SW 13:00:16 26° SSE 13:03:29 10° ESE
Cosmos 1470 Rocket 3.5 12:57:23 10° NNW 13:01:42 62° W 13:05:57 10° S
COSMO-SKYMED 1 3.2 12:58:26 10° SSE 13:02:41 61° ENE 13:06:58 10° N
USA 281 3.5 12:57:30 10° SSE 13:04:02 75° ENE 13:10:36 10° NNW
GP-B 4.4 13:04:56 10° NNW 13:08:07 20° W 13:11:17 10° SW
Cosmos 1110 Rocket 4.4 13:07:54 10° NW 13:12:41 39° W 13:17:29 10° SSW
Cosmos 1269 Rocket 4.0 13:07:38 10° SSW 13:12:56 83° WNW 13:18:15 10° NNE
Cosmos 1726 4.3 13:11:38 10° NNE 13:14:49 31° E 13:18:00 10° SE
Spot 4 Rocket 4.3 13:10:45 10° N 13:15:41 48° WNW 13:20:36 10° SW
Cosmos 2263 Rocket 3.7 13:11:17 10° N 13:16:36 42° ENE 13:21:54 10° SE
